TimeCST,TemperatureF,Dew PointF,Humidity,Sea Level PressureIn,VisibilityMPH,Wind Direction,Wind SpeedMPH,Gust SpeedMPH,PrecipitationIn,Events,Conditions,WindDirDegrees,DateUTC
12:56 AM,12.9,10.0,88,30.14,-9999.0,NNW,12.7,-,N/A,,Unknown,340,2013-02-27 06:56:00
1:56 AM,16.0,12.9,88,30.13,-9999.0,NNW,15.0,-,N/A,,Unknown,340,2013-02-27 07:56:00
2:56 AM,16.0,14.0,92,30.13,-9999.0,NNW,12.7,-,N/A,,Unknown,340,2013-02-27 08:56:00
3:56 AM,18.0,15.1,88,30.12,-9999.0,NNW,15.0,-,N/A,,Unknown,340,2013-02-27 09:56:00
4:56 AM,18.0,16.0,92,30.13,-9999.0,NNW,12.7,-,N/A,,Unknown,340,2013-02-27 10:56:00
5:56 AM,18.0,15.1,88,30.14,-9999.0,NNW,17.3,-,N/A,,Unknown,340,2013-02-27 11:56:00
6:56 AM,17.1,14.0,88,30.17,-9999.0,NNW,17.3,-,N/A,,Unknown,340,2013-02-27 12:56:00
7:56 AM,16.0,14.0,92,30.18,-9999.0,NNW,15.0,-,N/A,,Unknown,340,2013-02-27 13:56:00
8:56 AM,18.0,15.1,88,30.19,-9999.0,NNW,17.3,-,N/A,,Unknown,340,2013-02-27 14:56:00
9:56 AM,19.9,17.1,89,30.19,-9999.0,NNW,16.1,-,N/A,,Unknown,340,2013-02-27 15:56:00
10:56 AM,19.9,17.1,89,30.19,-9999.0,NNW,18.4,-,N/A,,Unknown,340,2013-02-27 16:56:00
11:56 AM,21.9,17.1,82,30.20,-9999.0,North,20.7,-,N/A,,Unknown,350,2013-02-27 17:56:00
12:56 PM,23.0,19.0,85,30.19,-9999.0,NNW,18.4,-,N/A,,Unknown,340,2013-02-27 18:56:00
1:56 PM,24.1,19.0,81,30.18,-9999.0,North,25.3,-,N/A,,Unknown,350,2013-02-27 19:56:00
2:56 PM,26.1,21.0,81,30.17,-9999.0,NNW,21.9,-,N/A,,Unknown,340,2013-02-27 20:56:00
3:56 PM,27.0,21.9,81,30.17,-9999.0,North,21.9,-,N/A,,Unknown,350,2013-02-27 21:56:00
4:56 PM,28.0,23.0,81,30.17,-9999.0,North,20.7,-,N/A,,Unknown,360,2013-02-27 22:56:00
5:56 PM,27.0,23.0,85,30.19,-9999.0,North,23.0,-,N/A,,Unknown,360,2013-02-27 23:56:00
6:56 PM,27.0,23.0,85,30.21,-9999.0,North,20.7,-,N/A,,Unknown,360,2013-02-28 00:56:00
7:56 PM,25.0,21.9,88,30.23,-9999.0,North,23.0,-,N/A,,Unknown,360,2013-02-28 01:56:00
8:56 PM,24.1,21.0,88,30.24,-9999.0,North,19.6,-,N/A,,Unknown,350,2013-02-28 02:56:00
9:56 PM,21.9,19.0,89,30.24,-9999.0,NNW,17.3,-,N/A,,Unknown,340,2013-02-28 03:56:00
10:56 PM,19.9,17.1,89,30.24,-9999.0,NNW,16.1,-,N/A,,Unknown,340,2013-02-28 04:56:00
11:56 PM,19.0,16.0,88,30.25,-9999.0,NNW,17.3,-,N/A,,Unknown,340,2013-02-28 05:56:00